Regional Weather Roundup
Issued by NWS

Home | Current Version | Previous Version | Graphics & Text | Print | Product List | Glossary Off
Versions: 1 2 3 4 5 6 7 8 9 10 11 12 13 14 15 16 17 18 19 20 21 22 23 24 25 26 27 28 29 30 31 32 33 34 35 36 37 38 39 40 41 42 43 44 45 46 47 48 49 50

000
ASUS43 KMPX 161401
RWRMN
WEATHER ROUNDUP FOR MINNESOTA
NATIONAL WEATHER SERVICE TWIN CITIES/CHANHASSEN MN
900 AM CDT TUE SEP 16 2014


NOTE: "FAIR" INDICATES FEW OR NO CLOUDS BELOW 12,000 FEET WITH NO
SIGNIFICANT WEATHER AND/OR OBSTRUCTIONS TO VISIBILITY. N/A MEANS
CURRENT SKY AND/OR WEATHER CONDITIONS ARE NOT AVAILABLE.

MNZ060>063-068>070-161500-
   Twin Cities Metro

CITY           SKY/WX    TMP DP  RH WIND       PRES   REMARKS
TWIN CITIES    SUNNY     49  40  71 SW5       30.18F
ST PAUL        SUNNY     49  44  83 CALM      30.20S
CRYSTAL        SUNNY     53  43  68 SW9       30.16F
BLAINE         SUNNY     52  45  76 SW5       30.16F
LAKEVILLE      SUNNY     48  43  81 CALM      30.18F
EDEN PRAIRIE   SUNNY     47  43  86 SW3       30.17F
SOUTH ST PAUL  SUNNY     50  42  73 SW6       30.18S
LAKE ELMO      FAIR      48  45  87 SW3       30.19S
$$
MNZ001>005-007-008-013>017-022>024-027-028-161500-
   Northwest Minnesota

CITY           SKY/WX    TMP DP  RH WIND       PRES   REMARKS
BEMIDJI        SUNNY     50  38  63 SW9       30.07S
HALLOCK        MOSUNNY   48  45  87 CALM      30.01R
ROSEAU         CLOUDY    52  43  71 SW8       30.00S
WARROAD        PTSUNNY   50  43  76 SW9       29.99S
THIEF RVR FALL CLOUDY    48  39  71 SW10      30.04F
CROOKSTON      SUNNY     46  41  81 S9        30.06F
FOSSTON        SUNNY     48  37  66 SW10      30.08F
DETROIT LAKES  SUNNY     50  41  71 SW6       30.11S
MOORHEAD       SUNNY     46  43  87 S6        30.10S
PARK RAPIDS    SUNNY     50  41  71 W8        30.10F
MAHNOMEN       FAIR      45  38  76 SW8       30.09F
$$
MNZ006-009>011-018-025>026-161500-
   North Central Minnesota

CITY           SKY/WX    TMP DP  RH WIND       PRES   REMARKS
BAUDETTE       CLOUDY    50  40  68 VRB3      29.99S
FLAG ISLAND    PTSUNNY   54  41  62 W13       29.95S
INTL FALLS     PTSUNNY   50  43  77 W8        29.98S
WASKISH        PTSUNNY   55  45  67 SW5G16    30.03S
BIG FORK       MOSUNNY   52  39  62 SW12      30.04F
LONGVILLE      SUNNY     52  39  62 SW6       30.09S
GRAND RAPIDS   SUNNY     50  37  62 W9G16     30.08S
CRANE LAKE     MOSUNNY   48  41  76 SW7       30.01S
ORR            MOSUNNY   48  39  71 CALM      30.00F
COOK           MOSUNNY   48  39  71 SW10      30.03S
WALKER         FAIR      52  37  57 W13       30.08F
$$
MNZ012-019>021-037-161500-
   Northeast Minnesota

CITY           SKY/WX    TMP DP  RH WIND       PRES   REMARKS
DULUTH         MOSUNNY   52  37  56 W17       30.08F
ELY            MOSUNNY   48  39  71 SW8       30.02S
HIBBING        SUNNY     50  40  68 VRB5      30.06F
EVELETH        SUNNY     45  37  76 W8        30.06F
DULUTH HARBOR  SUNNY     50  43  76 SW15      30.08F
TWO HARBORS    SUNNY     52  37  58 W8G16     30.03F
SILVER BAY     SUNNY     52  43  71 W7        30.01F
GRAND MARAIS     N/A     53  45  74 SW10      29.99F
G MARAIS ARPRT MOSUNNY   48  37  66 W7        29.99F
$$
MNZ029>031-032-039>041-046>048-054>057-064-161500-
   West Central Minnesota

CITY           SKY/WX    TMP DP  RH WIND       PRES   REMARKS
FERGUS FALLS   SUNNY     48  39  71 S6        30.13S
WHEATON        SUNNY     48  41  76 S5        30.13S
MORRIS         SUNNY     46  43  87 S7        30.11F
ALEXANDRIA     SUNNY     50  41  71 SW7       30.14F
ELBOW LAKE     FAIR      47  42  81 S6        30.12F
WADENA         SUNNY     50  39  66 W7        30.11F
GLENWOOD       SUNNY     48  43  81 SW7       30.14F
APPLETON       SUNNY     48  43  81 CALM      30.13F
BENSON         SUNNY     46  43  87 SW5       30.14F
ORTONVILLE     SUNNY     48  41  76 CALM      30.12F
MADISON        SUNNY     52  46  82 S5        30.14F
WILLMAR        FAIR      48  41  76 S5        30.17S
$$
MNZ033>034-036-042>043-049>051-058-059-161500-
   Central Minnesota

CITY           SKY/WX    TMP DP  RH WIND       PRES   REMARKS
ST CLOUD       SUNNY     50  42  74 SW5       30.15F
SAUK CENTRE    FAIR      48  41  76 SW5       30.14F
PAYNESVILLE    SUNNY     48  43  82 S5        30.16F
AITKIN         SUNNY     54  41  62 SW3       30.09F
PINE RIVER     SUNNY     52  39  62 W5        30.13F
BRAINERD       SUNNY     46  41  82 SW5       30.12F
STAPLES        SUNNY     50  39  66 W7        30.12S
LONG PRAIRIE   FAIR      46  39  76 S5        30.14F
LITTLE FALLS   SUNNY     45  37  76 CALM      30.13F
LITCHFIELD     SUNNY     50  45  81 SW3       30.16F
BUFFALO        SUNNY     49  41  75 CALM      30.17F
MAPLE LAKE     SUNNY     51  45  79 SW3       30.17F
$$
MNZ037-044-045-052-053-161500-
   East Central Minnesota

CITY           SKY/WX    TMP DP  RH WIND       PRES   REMARKS
PRINCETON        N/A    N/A N/A N/A MISG        N/A
MORA           SUNNY     46  39  76 W6        30.16S
CAMBRIDGE      SUNNY     52  39  62 SW3       30.14S
RUSH CITY      SUNNY     48  43  84 CALM      30.15F
MOOSE LAKE     SUNNY     45  41  87 SW3       30.09F
HINCKLEY       FAIR      46  41  81 SW8       30.14S
CLOQUET        SUNNY     50  37  62 W8        30.09F
MCGREGOR       SUNNY     50  41  71 SW7       30.11F
$$
MNZ071>073-080-081-089-090-097-098-161500-
   Southwest Minnesota

CITY           SKY/WX    TMP DP  RH WIND       PRES   REMARKS
MONTEVIDEO     SUNNY     52  43  71 SW6       30.16F
GRANITE FALLS  SUNNY     47  43  85 S6        30.18S
CANBY          SUNNY     53  43  71 SW10G17   30.15F
MARSHALL       SUNNY     52  43  71 SW10      30.15F
REDWOOD FALLS  SUNNY     49  43  80 SW5       30.17F
OLIVIA         SUNNY     50  45  81 S5        30.16F
PIPESTONE      SUNNY     48  45  87 SW8       30.16F
WINDOM         SUNNY     48  45  87 SW3       30.19F
WORTHINGTON    SUNNY     48  43  81 SW7       30.20S
JACKSON        SUNNY     50  43  76 SW6       30.20S
TRACY          SUNNY     51  44  78 SW8       30.17F
SLAYTON        SUNNY     49  43  80 CALM      30.19S
$$
MNZ065>067-074>077-082>085-091>093-161500-
   South Central Minnesota

CITY           SKY/WX    TMP DP  RH WIND       PRES   REMARKS
MANKATO        SUNNY     46  39  76 SW3       30.19F
NEW ULM        SUNNY     46  45  93 SW3       30.18F
ST JAMES       SUNNY     50  43  76 SW5       30.20F
FAIRMONT       SUNNY     52  41  66 SW6       30.20F
GLENCOE        SUNNY     49  42  75 SW3       30.17F
FARIBAULT      SUNNY     50  43  76 S5        30.19F
OWATONNA       SUNNY     48  43  81 S3        30.20S
WASECA         SUNNY     45  37  76 S3        30.22S
ALBERT LEA     SUNNY     48  45  87 SW3       30.21S
$$
MNZ078>079-086>088-094>096-161500-
   Southeast Minnesota

CITY           SKY/WX    TMP DP  RH WIND       PRES   REMARKS
ROCHESTER      SUNNY     49  42  77 SW8       30.21F
RED WING       SUNNY     48  45  87 CALM      30.19S
STANTON        SUNNY     47  43  83 SW3       30.18S
DODGE CENTER   SUNNY     48  45  87 SW6       30.20S
WINONA         PTSUNNY   46  45  93 CALM      30.21F
AUSTIN         SUNNY     46  43  87 CALM      30.21S
PRESTON        SUNNY     48  46  91 SW7       30.21F
$$
ABBREVIATIONS USED IN REMARKS
   TC - TEMPERATURES IN CELSIUS
  WCI - WIND CHILL INDEX
   HX - HEAT INDEX
  VSB - VISIBILITY
$$



USA.gov is the U.S. government's official web portal to all federal, state and local government web resources and services.